Regional Weather Roundup
Issued by NWS Cleveland, OH

Home | Current Version | Previous Version | Graphics & Text | Print | Product List | Glossary On
Versions: 1 2 3 4 5 6 7 8 9 10 11 12 13 14 15 16 17 18 19 20 21 22 23 24 25 26 27 28 29 30 31 32 33 34 35 36 37 38 39 40 41 42 43 44 45 46 47 48 49 50
000
ASUS41 KCLE 281710
RWRCLE
OHIO REGIONAL WEATHER ROUNDUP
NATIONAL WEATHER SERVICE CLEVELAND, OH
100 PM EDT THU JUL 28 2016

NOTE: "FAIR" INDICATES FEW OR NO CLOUDS BELOW 12,000 FEET WITH NO
SIGNIFICANT WEATHER AND/OR OBSTRUCTIONS TO VISIBILITY.

OHZ001>008-015>018-024>027-034-035-043-044-281800-
   NORTHWEST OHIO

CITY           SKY/WX    TMP DP  RH WIND       PRES   REMARKS
DEFIANCE       CLOUDY    83  66  56 NE7       29.90F
FINDLAY        CLOUDY    85  61  44 E8        29.89F
TOLEDO EXPRESS CLOUDY    82  69  64 N8        29.90S
TOLEDO EXEC    CLOUDY    82  72  71 NE6       29.91S
LIMA           CLOUDY    83  66  56 VRB5      29.90F
$$

OHZ009>014-019>023-028>033-038-089-281800-
   NORTHEAST OHIO

CITY           SKY/WX    TMP DP  RH WIND       PRES   REMARKS
CLE-HOPKINS    CLOUDY    84  60  44 CALM      29.92S
CLE-LAKEFRONT  CLOUDY    81  67  62 N9        29.89S
CUY CO. ARPT   CLOUDY   N/A N/A N/A E9        29.91S
LORAIN-ELYRIA  PTSUNNY   81  65  58 N5        29.91S
ASHTABULA      CLOUDY    82  67  60 E5        29.92S
AKRON-CANTON   CLOUDY    78  67  68 S8        29.93S
WOOSTER        PTSUNNY   78  67  68 SW5       29.93S
MANSFIELD      CLOUDY    84  63  49 NE6       29.92F
YOUNGSTOWN     CLOUDY    80  70  71 CALM      29.92S
$$

OHZ042-051>053-060>062-070>072-077>081-281800-
  SOUTHWEST OHIO

CITY           SKY/WX    TMP DP  RH WIND       PRES   REMARKS
CINC-COVINGTON CLOUDY    75  72  90 SW5       29.92F
CINC-LUNKEN    CLOUDY    76  73  91 S3        29.91F
HAMILTON       CLOUDY    80  71  74 CALM      29.91F
DAYTON         CLOUDY    79  70  74 SW7       29.92F
WRIGHT-PAT AFB NOT AVBL
DAYTON GENERAL CLOUDY    77  70  79 CALM      29.91F
WILMINGTON     LGT RAIN  73  71  93 S3        29.92F
$$

OHZ036-037-039>041-045>050-054>059-063>069-073>076-082>088-281800-
  CENTRAL AND SOUTHEAST OHIO

CITY           SKY/WX    TMP DP  RH WIND       PRES   REMARKS
COLUMBUS       CLOUDY    76  70  82 S6        29.91S
OSU AIRPORT    LGT RAIN  77  72  84 S9        29.91F
BOLTON FIELD     N/A     75  72  88 MISG        N/A
RICKENBACK AFB CLOUDY    76  71  84 W7        29.91F
NEWARK         PTSUNNY   79  70  74 S7        29.92R
MARION         CLOUDY    83  65  54 CALM      29.91S
LANCASTER      CLOUDY    77  73  87 CALM      29.93S
ZANESVILLE     LGT RAIN  74  70  87 N3        29.94S FOG
NEW PHILLY     CLOUDY    74  70  87 S8        29.94S
$$




USA.gov is the U.S. government's official web portal to all federal, state and local government web resources and services.